Location: DARK SKY Beskydy - Park tmavé oblohy, www.darkskybeskydy.cz
(49.4926°N, 18.5016°E)
Time: 02:42:56
(UTC+02:00)

A-11 Canister half - Pass Details

Date: 23 February 2024
Orbit: 1513 x 1686 km, 47.2° (Epoch: 24 April)

Event Time Altitude Azimuth Distance (km) Brightness Sun altitude
Rises 02:11:30 0° 224° (SW) 4,931 - -42.0°
Reaches altitude 10° 02:14:48 10° 219° (SW) 3,941 - -41.6°
Maximum altitude 02:24:23 50° 148° (SSE) 2,035 - -40.5°
Exits shadow 02:25:40 48° 127° (SE) 2,080 9.6 -40.3°
Drops below altitude 10° 02:33:47 10° 78° (ENE) 3,866 11.7 -39.3°
Sets 02:36:59 0° 73° (ENE) 4,832 12.4 -38.8°
